Location: Maiden
(35.5760°N, 81.2120°W)
Time: 01:04:04
(UTC-04:00)

A-11 Canister half - Pass Details

Date: 07 August 2020
Orbit: 1527 x 1682 km, 47.3° (Epoch: 25 September)

Event Time Altitude Azimuth Distance (km) Brightness Sun altitude
Rises 15:49:54 0° 271° (W) 4,928 12.2 53.4°
Reaches altitude 10° 15:53:18 10° 277° (W) 3,944 11.8 52.8°
Maximum altitude 16:02:56 46° 348° (NNW) 2,149 10.3 50.9°
Drops below altitude 10° 16:12:28 10° 60° (ENE) 3,894 10.8 49.1°
Sets 16:15:49 0° 67° (ENE) 4,863 11.2 48.4°
